Skip Page Navigation
NASA JPL Caltech
NASA Logo - Jet Propulsion Laboratory + View the NASA Portal
+ Near-Earth Object (NEO) Program
Search JPL
JPL Home Earth Solar System Stars & Galaxies Technology
JPL Solar System Dynamics
BODIES ORBITS EPHEMERIDES TOOLS PHYSICAL DATA DISCOVERY FAQ SITE MAP
JPL Small-Body Database Browser
Search: [ help ]  
19167 (1991 ED2)
Classification: Main-belt Asteroid          SPK-ID: 2019167
Ephemeris | Orbit Diagram | Orbital Elements | Physical Parameters | Discovery Circumstances | Close-Approach Data ]

[ show orbit diagram ]
Orbital Elements at Epoch 2457000.5 (2014-Dec-09.0) TDB
Reference: JPL 13 (heliocentric ecliptic J2000)
 Element Value Uncertainty (1-sigma)   Units 
e .09566219424836454 5.4226e-08  
a 2.266414122757534 1.4004e-08 AU
q 2.049603974699066 1.2312e-07 AU
i 4.704094115952407 6.0998e-06 deg
node 162.0763418884603 6.4226e-05 deg
peri 343.7522424491817 7.1729e-05 deg
M 353.8085563758893 3.2029e-05 deg
tp 2457021.933680397372
(2014-Dec-30.43368040)
0.00011094 JED
period 1246.256190237389
3.41
1.155e-05
3.162e-08
d
yr
n .2888651649797836 2.6772e-09 deg/d
Q 2.483224270816002 1.5343e-08 AU
  Orbit Determination Parameters
   # obs. used (total)      1129  
   data-arc span      8741 days (23.93 yr)  
   first obs. used      1991-02-10  
   last obs. used      2015-01-16  
   planetary ephem.      DE431  
   SB-pert. ephem.      SB431-BIG16  
   condition code      0  
   fit RMS      .47059  
   data source      ORB  
   producer      Otto Matic  
   solution date      2015-Feb-04 13:53:24  

Additional Information
 Earth MOID = 1.06226 AU 
 T_jup = 3.605 
[ show covariance matrix ]

Ephemeris | Orbit Diagram | Orbital Elements | Physical Parameters | Discovery Circumstances | Close-Approach Data ]

Physical Parameter Table
Parameter Symbol Value Units Sigma Reference Notes
absolute magnitude H 14.1 mag n/a MPO319324  

19167 (1991 ED2)          Discovered 1991-Mar-09 by Debehogne, H. at La Silla (809)
Reference: 20001211/Numbers.arcLast Updated: 2004-04-19

[ show close-approach data ]
Alternate Designations
 1991 ED2 = 1991 CY2 = 1991 DR2 = 1998 FY50 
Ephemeris | Orbit Diagram | Orbital Elements | Physical Parameters | Discovery Circumstances | Close-Approach Data ]
ABOUT SSD CREDITS/AWARDS PRIVACY/COPYRIGHT GLOSSARY LINKS
FirstGov 2015-Mar-05 04:06 UT
(server date/time)  
NASA Home Page
Site Manager:   Ryan S. Park
Webmaster  Alan B. Chamberlin